TimePST,TemperatureF,Dew PointF,Humidity,Sea Level PressureIn,VisibilityMPH,Wind Direction,Wind SpeedMPH,Gust SpeedMPH,PrecipitationIn,Events,Conditions,WindDirDegrees,DateUTC
12:36 AM,53.6,51.8,94,30.15,1.8,Calm,Calm,-,N/A,,Overcast,0,2012-11-06 08:36:00
12:49 AM,53.6,53.6,100,30.15,3.0,Calm,Calm,-,N/A,,Overcast,0,2012-11-06 08:49:00
12:53 AM,54.0,53.1,97,30.15,6.0,Calm,Calm,-,N/A,,Overcast,0,2012-11-06 08:53:00
1:29 AM,53.6,53.6,100,30.14,0.2,Calm,Calm,-,N/A,Fog,Fog,0,2012-11-06 09:29:00
1:53 AM,54.0,53.1,97,30.14,0.2,Calm,Calm,-,N/A,Fog,Fog,0,2012-11-06 09:53:00
2:53 AM,54.0,52.0,93,30.12,0.2,Calm,Calm,-,N/A,Fog,Fog,0,2012-11-06 10:53:00
3:51 AM,53.6,51.8,94,30.12,1.0,Calm,Calm,-,N/A,,Overcast,0,2012-11-06 11:51:00
3:53 AM,53.1,52.0,96,30.12,1.0,Calm,Calm,-,N/A,,Overcast,0,2012-11-06 11:53:00
4:10 AM,53.6,51.8,94,30.11,0.8,North,3.5,-,N/A,,Overcast,350,2012-11-06 12:10:00
4:18 AM,53.6,51.8,94,30.11,1.2,North,3.5,-,N/A,,Overcast,350,2012-11-06 12:18:00
4:48 AM,53.6,51.8,94,30.11,2.5,Calm,Calm,-,N/A,,Overcast,0,2012-11-06 12:48:00
4:53 AM,53.1,52.0,96,30.11,3.0,NNW,3.5,-,N/A,,Overcast,330,2012-11-06 12:53:00
5:53 AM,52.0,51.1,97,30.10,10.0,NNW,4.6,-,N/A,,Overcast,340,2012-11-06 13:53:00
6:53 AM,52.0,50.0,93,30.09,10.0,NNW,3.5,-,N/A,,Overcast,330,2012-11-06 14:53:00
7:53 AM,52.0,48.9,89,30.09,10.0,NNW,4.6,-,N/A,,Overcast,330,2012-11-06 15:53:00
8:53 AM,53.1,48.9,86,30.09,10.0,NW,3.5,-,N/A,,Overcast,320,2012-11-06 16:53:00
9:53 AM,54.0,48.9,83,30.06,10.0,Calm,Calm,-,N/A,,Overcast,0,2012-11-06 17:53:00
10:12 AM,53.6,48.2,82,30.06,10.0,NNW,4.6,-,N/A,,Overcast,340,2012-11-06 18:12:00
10:20 AM,55.4,50.0,82,30.05,10.0,NNW,3.5,-,N/A,,Overcast,330,2012-11-06 18:20:00
10:53 AM,57.0,51.1,81,30.04,10.0,Calm,Calm,-,N/A,,Overcast,0,2012-11-06 18:53:00
11:10 AM,57.2,51.8,82,30.03,10.0,Calm,Calm,-,N/A,,Overcast,0,2012-11-06 19:10:00
11:53 AM,57.9,51.1,78,30.01,10.0,NW,3.5,-,N/A,,Overcast,310,2012-11-06 19:53:00
12:49 PM,59.0,51.8,77,29.98,10.0,Calm,Calm,-,N/A,,Scattered Clouds,0,2012-11-06 20:49:00
12:53 PM,59.0,51.1,75,29.99,10.0,Calm,Calm,-,N/A,,Scattered Clouds,0,2012-11-06 20:53:00
1:53 PM,61.0,53.1,75,29.96,10.0,Calm,Calm,-,N/A,,Clear,0,2012-11-06 21:53:00
2:53 PM,63.0,53.1,70,29.94,10.0,Calm,Calm,-,N/A,,Clear,0,2012-11-06 22:53:00
3:53 PM,64.9,53.1,65,29.93,10.0,NNW,6.9,-,N/A,,Clear,340,2012-11-06 23:53:00
4:53 PM,63.0,46.0,54,29.92,10.0,NNW,10.4,-,N/A,,Clear,330,2012-11-07 00:53:00
5:53 PM,61.0,46.9,60,29.93,10.0,North,9.2,21.9,N/A,,Clear,350,2012-11-07 01:53:00
6:53 PM,61.0,46.9,60,29.94,10.0,West,8.1,-,N/A,,Clear,260,2012-11-07 02:53:00
7:53 PM,61.0,48.0,62,29.94,10.0,WSW,4.6,-,N/A,,Mostly Cloudy,250,2012-11-07 03:53:00
8:53 PM,57.9,50.0,75,29.96,10.0,Variable,6.9,17.3,N/A,,Partly Cloudy,0,2012-11-07 04:53:00
9:53 PM,57.9,50.0,75,29.97,10.0,NNW,6.9,-,N/A,,Overcast,340,2012-11-07 05:53:00
10:53 PM,59.0,48.9,69,29.98,10.0,WNW,15.0,20.7,N/A,,Overcast,290,2012-11-07 06:53:00
11:53 PM,57.0,46.0,67,30.00,10.0,WNW,16.1,23.0,N/A,,Overcast,300,2012-11-07 07:53:00